Regional Weather Roundup
Issued by NWS San Diego, CA

Home | Current Version | Previous Version | Text Only | Print | Product List | Glossary On
Versions: 1 2 3 4 5 6 7 8 9 10 11 12 13 14 15 16 17 18 19 20 21 22 23 24 25 26 27 28 29 30 31 32 33 34 35 36 37 38 39 40 41 42 43 44 45 46 47 48 49 50
000
ASUS46 KSGX 180710
RWRSGX

SAN DIEGO HOURLY WEATHER ROUNDUP
NATIONAL WEATHER SERVICE SAN DIEGO CA
1100 PM PST WED DEC 17 2014

NOTE: "FAIR" INDICATES FEW OR NO CLOUDS BELOW 12,000 FEET WITH NO
SIGNIFICANT WEATHER AND/OR OBSTRUCTIONS TO VISIBILITY.

CAZ042-043-060-061-PZZ750-775-180800-

GREATER SAN DIEGO AREA

CITY           SKY/WX    TMP DP  RH WIND       PRES   REMARKS
LINDBERGH FLD  MOCLDY    58  45  62 CALM      30.16R
POINT LOMA       N/A     59  46  63 NW10        N/A
NATIONAL CITY    N/A     54  46  73 CALM      30.15S
CHULA VISTA      N/A     52  48  87 CALM      30.08R
IMPERIAL BEACH MOCLDY    54  48  80 E7        30.15R
BROWN FIELD    PTCLDY    51  45  79 E6        30.14R
MIRAMAR MCAS   PTCLDY    55  44  66 SE5       30.13S
MONTGOMERY FLD LGT RAIN  54  47  77 SE6       30.14S

$$

NORTH SAN DIEGO COUNTY

CITY           SKY/WX    TMP DP  RH WIND       PRES   REMARKS
CAMP PENDLETON PTCLDY    51  46  83 NE7       30.13S
OCEANSIDE AP   CLEAR     50  46  86 CALM      30.12S
OCEANSIDE HBR    N/A     55  50  85 CALM      30.16S
VISTA            N/A     53  48  82 CALM      30.12S
CARLSBAD       CLEAR     55  47  74 E3        30.12S
DEL MAR          N/A     55  51  85 CALM      30.16S
LA JOLLA SCRIP   N/A     60  51  72 CALM      30.11S
FALLBROOK        N/A     53  52  97 CALM      30.14S
ESCONDIDO        N/A     54  48  81 CALM      30.16S
SAN MARCOS       N/A     55  49  81 CALM      30.12S
POWAY            N/A     52  47  85 CALM      30.17R

$$

EAST SAN DIEGO COUNTY

CITY           SKY/WX    TMP DP  RH WIND       PRES   REMARKS
RAMONA         PTCLDY    47  44  90 E3        30.14R
SANTEE LAKES     N/A     50  47  88 CALM      30.16S
LA MESA          N/A     52  48  85 CALM      30.09S
JAMUL            N/A     47  44  90 CALM      30.15S
DESCANSO N       N/A     41  40  93 CALM      30.07R
MT. LAGUNA OBS   N/A     30  30 100 NW9       29.67S WCI  21
CAMPO            N/A     39  37  92 CALM      30.10R

$$

ORANGE COUNTY AND THE LOS ANGELES BASIN

CITY           SKY/WX    TMP DP  RH WIND       PRES   REMARKS
JOHN WAYNE AP  PTCLDY    57  46  66 SE6       30.11S
LAGUNA BEACH     N/A     52  48  84 N6        30.08S
LAKE FOREST FR   N/A     51  43  76 CALM      30.04S
SANTA ANA        N/A     51  47  86 CALM      30.07S
HUNTINGTON BCH   N/A     49  47  92 CALM      30.13S
LOS ALAMITOS   FAIR      51  48  87 CALM      30.11S
FULLERTON      CLEAR     54  46  74 CALM      30.11S
LONG BEACH     CLEAR     51  47  86 E3        30.11S
L.A. AP        PTCLDY    55  45  68 CALM      30.11S
L.A. DOWNTOWN  PTCLDY    52  46  80 CALM      30.11S

$$

THE INLAND EMPIRE

CITY           SKY/WX    TMP DP  RH WIND       PRES   REMARKS
CORONA         CLEAR     48  42  80 CALM      30.13S
CHINO          CLEAR     49  44  83 CALM      30.14R
ONTARIO        MOCLDY    52  44  74 NE5       30.12S
RIVERSIDE AP   PTCLDY    51  45  79 CALM      30.12S
RIV CYN CREST    N/A     52  52  99 SE2         N/A
MORENO VALLEY    N/A     49  48  96 CALM      29.31S
MARCH ARB      MOCLDY    46  46 100 E1        30.13R
HORSETHIEF CYN   N/A     46  39  76 CALM      30.13S
PERRIS           N/A     49  48  94 S2        30.12S
MENIFEE          N/A     47  46  95 CALM      30.21S
HEMET EAST       N/A     48  41  76 CALM      30.14R
FRENCH VALLEY  PTSUNNY   50  45  81 CALM      30.13S
TEMECULA         N/A     52  50  92 CALM      30.10S

$$

SAN BERNARDINO AND RIVERSIDE COUNTY MOUNTAINS

CITY           SKY/WX    TMP DP  RH WIND       PRES   REMARKS
BIG BEAR AP    MOCLDY    28  23  80 W6        30.08S WCI  22
PINE COVE        N/A     32  31  98 N1        30.18R

$$

SOUTHERN DESERT INCLUDING THE COACHELLA VALLEY

CITY           SKY/WX    TMP DP  RH WIND       PRES   REMARKS
PALM SPRINGS   CLOUDY    56  49  77 N7        30.13R
THERMAL        MOCLDY    51  47  86 N3        30.10S FOG
BLYTHE         CLOUDY    51  49  92 CALM      30.10S
IMPERIAL AP    CLOUDY    54  51  90 CALM      30.10S FOG
EL CENTRO NAS  CLOUDY    52  51  97 CALM      30.10S FOG
YUMA AZ        MOCLDY    54  49  83 CALM      30.10F

$$

UPPER DESERT

CITY           SKY/WX    TMP DP  RH WIND       PRES   REMARKS
VICTORVILLE AP PTCLDY    41  36  81 SW6       30.11S
HESPERIA         N/A     40  36  86 CALM      30.29R
APPLE VALLEY     N/A     44  34  66 CALM      30.17R
PALMDALE       PTCLDY    42  36  79 CALM      30.11S
LANCASTER      CLEAR     40  34  79 W9        30.11S WCI  34
EDWARDS AFB    PTCLDY    41  37  86 S6        30.09S
DAGGETT        MOCLDY    45  37  73 NW3       30.11R
29 PALMS N     CLOUDY    48  43  82 CALM      30.18R
NEEDLES        CLOUDY    51  47  86 CALM      30.11F

$$

REGIONAL REPORTS

CITY           SKY/WX    TMP DP  RH WIND       PRES   REMARKS
SANTA BARBARA  PTCLDY    52  40  63 CALM      30.11S
SANDBERG       PTCLDY    38  31  76 N8        30.11S WCI  32
MT. WILSON       N/A     34  30  86 MISG        N/A
LAS VEGAS NV   CLOUDY    49  44  83 S5        30.05S
PHOENIX AZ     PTCLDY    53  48  83 SE7       30.11F
TIJUANA        PTCLDY    52  43  71 CALM      30.16R
ENSENADA NW      N/A     57  32  38 E8        30.12S

$$

OFFSHORE ISLANDS

CITY           SKY/WX    TMP DP  RH WIND       PRES   REMARKS
CATALINA ARPT  CLEAR     52  44  74 W10       30.13S
SAN NICOLAS IS CLEAR    N/A N/A N/A W12       30.14S

$$

MARINE AND OFFSHORE BUOY REPORTS

STATION/POSITION SKY/WX   TEMP    WIND        PRES    SWELL
                          AIR SEA DIR/SP/G            HT/PER/DIR
                          (F)     (DEG/KT/KT) (MB)    (FT/S/D)
TANNER BANKS               61 65  290/ 12/ 16 1021.0R  10/290/12
S CLEMENTE BASIN           62 65  310/ 12/ 16 1020.4R   7/290/13
SAN NICOLAS IS.               62                N/A     8/290/11
SO. S. ROSA ISLA           60 62  280/  6/  8 1020.0F  10/11
W. S. BARBARA CH           59 61  270/  4/  6 1019.8F  10/300/12
S. MONICA BASIN            61 63  280/ 16/ 19 1019.9F   5/260/13
S PEDRO CHANNEL               64                N/A     3/270/13
DANA POINT                    64                N/A     2/280/13
CMP PENDLETON NS              64                N/A     2/230/14
OCEANSIDE OFFSHR              65                N/A     2/260/12
TORREY PINES OTR              65                N/A     2/230/15
LA JOLLA 1                 62 64  290/  5/  8 1020.6S
MISSION BAY BUOY              65                N/A     3/260/13
SAN DIEGO BAY                 65              1021.2S
POINT LOMA SOUTH              65                N/A     3/270/12

$$




USA.gov is the U.S. government's official web portal to all federal, state and local government web resources and services.